sat.trackr.live / text

‹ back to catalog

HEAD-3B

NORAD 57627 · 2023-121B

PAYLOAD ACTIVE UNKNOWN

§ Identity

Operator
Country
PRC
Launch date
2023-08-14
Launch site
XICLF
Launch vehicle
Mass (kg)
RCS (m²)

External: N2YO · Heavens-Above · Gunter

§ Orbital elements

Epoch: 2026-09-21T22:31:00.691680Z

Period
98.52 min
Inclination
45.0020°
Eccentricity
0.0005586
Mean motion
14.61704355 rev/d
Perigee alt
683.7 km
Apogee alt
691.6 km
Semi-major
7,065.8 km
B*
1.1217e-4
RAAN
188.4197°
Arg perigee
42.3598°
Mean anomaly
317.7690°
Rev number
16,582

§ Raw data

HEAD-3B1 57627U 23121B   26264.93820245  .00000403  00000+0  11217-3 0  99902 57627  45.0020 188.4197 0005586  42.3598 317.7690 14.61704355165824

JSON: /api/v1/satellites/57627 · /tle

For live sub-satellite position, see the globe view (requires WebGL).

§ Visibility from observer

Set your observer location to see the next 7 days of passes ≥ 10°. The values pass through the URL so the page stays shareable.

No JS? Fill the form by hand. The geolocation button needs JavaScript.